Time,TemperatureF,DewpointF,PressureIn,WindDirection,WindDirectionDegrees,WindSpeedMPH,WindSpeedGustMPH,Humidity,HourlyPrecipIn,Conditions,Clouds,dailyrainin,SoftwareType,DateUTC
2013-02-19 00:01:00,45.0,38.0,-100.00,West,266,14.0,-999.0,76,0.00,,,-99.99,,2013-02-19 08:01:00,
2013-02-19 00:11:00,45.0,38.0,-100.00,West,266,14.0,-999.0,76,0.00,,,-99.99,,2013-02-19 08:11:00,
2013-02-19 00:21:00,45.0,38.0,-100.00,West,266,14.0,-999.0,76,0.00,,,-99.99,,2013-02-19 08:21:00,
2013-02-19 00:31:00,45.0,38.0,-100.00,West,266,14.0,-999.0,76,0.00,,,-99.99,,2013-02-19 08:31:00,
2013-02-19 00:41:00,45.0,38.0,-100.00,West,266,14.0,-999.0,76,0.00,,,-99.99,,2013-02-19 08:41:00,
2013-02-19 01:01:00,44.0,37.0,-100.00,West,269,15.0,-999.0,76,0.00,,,-99.99,,2013-02-19 09:01:00,
2013-02-19 01:11:00,44.0,37.0,-100.00,West,269,15.0,-999.0,76,0.00,,,-99.99,,2013-02-19 09:11:00,
2013-02-19 01:21:00,44.0,37.0,-100.00,West,269,15.0,-999.0,76,0.00,,,-99.99,,2013-02-19 09:21:00,
2013-02-19 01:31:00,44.0,37.0,-100.00,West,269,15.0,-999.0,76,0.00,,,-99.99,,2013-02-19 09:31:00,
2013-02-19 01:41:00,44.0,37.0,-100.00,West,269,15.0,-999.0,76,0.00,,,-99.99,,2013-02-19 09:41:00,
2013-02-19 02:01:00,43.0,38.0,-100.00,West,268,13.0,-999.0,80,0.00,,,-99.99,,2013-02-19 10:01:00,
2013-02-19 02:11:00,43.0,38.0,-100.00,West,268,13.0,-999.0,80,0.00,,,-99.99,,2013-02-19 10:11:00,
2013-02-19 02:21:00,43.0,38.0,-100.00,West,268,13.0,-999.0,80,0.00,,,-99.99,,2013-02-19 10:21:00,
2013-02-19 02:31:00,43.0,38.0,-100.00,West,268,13.0,-999.0,80,0.00,,,-99.99,,2013-02-19 10:31:00,
2013-02-19 02:41:00,43.0,38.0,-100.00,West,268,13.0,-999.0,80,0.00,,,-99.99,,2013-02-19 10:41:00,
2013-02-19 03:01:00,43.0,37.0,-100.00,WSW,256,12.0,-999.0,80,0.00,,,-99.99,,2013-02-19 11:01:00,
2013-02-19 03:11:00,43.0,37.0,-100.00,WSW,256,12.0,-999.0,80,0.00,,,-99.99,,2013-02-19 11:11:00,
2013-02-19 03:21:00,43.0,37.0,-100.00,WSW,256,12.0,-999.0,80,0.00,,,-99.99,,2013-02-19 11:21:00,
2013-02-19 03:31:00,43.0,37.0,-100.00,WSW,256,12.0,-999.0,80,0.00,,,-99.99,,2013-02-19 11:31:00,
2013-02-19 03:41:00,43.0,37.0,-100.00,WSW,256,12.0,-999.0,80,0.00,,,-99.99,,2013-02-19 11:41:00,
2013-02-19 04:01:00,44.0,37.0,-100.00,WSW,245,7.0,-999.0,77,0.00,,,-99.99,,2013-02-19 12:01:00,
2013-02-19 04:12:00,44.0,37.0,-100.00,WSW,245,7.0,-999.0,77,0.00,,,-99.99,,2013-02-19 12:12:00,
2013-02-19 04:21:00,44.0,37.0,-100.00,WSW,245,7.0,-999.0,77,0.00,,,-99.99,,2013-02-19 12:21:00,
2013-02-19 04:32:00,44.0,37.0,-100.00,WSW,245,7.0,-999.0,77,0.00,,,-99.99,,2013-02-19 12:32:00,
2013-02-19 04:41:00,44.0,37.0,-100.00,WSW,245,7.0,-999.0,77,0.00,,,-99.99,,2013-02-19 12:41:00,
2013-02-19 05:02:00,44.0,38.0,-100.00,WSW,246,6.0,-999.0,79,0.00,,,-99.99,,2013-02-19 13:02:00,
2013-02-19 05:11:00,44.0,38.0,-100.00,WSW,246,6.0,-999.0,79,0.00,,,-99.99,,2013-02-19 13:11:00,
2013-02-19 05:22:00,44.0,38.0,-100.00,WSW,246,6.0,-999.0,79,0.00,,,-99.99,,2013-02-19 13:22:00,
2013-02-19 05:31:00,44.0,38.0,-100.00,WSW,246,6.0,-999.0,79,0.00,,,-99.99,,2013-02-19 13:31:00,
2013-02-19 05:41:00,44.0,38.0,-100.00,WSW,246,6.0,-999.0,79,0.00,,,-99.99,,2013-02-19 13:41:00,
2013-02-19 06:01:00,44.0,39.0,-100.00,SW,227,3.0,-999.0,81,0.00,,,-99.99,,2013-02-19 14:01:00,
2013-02-19 06:11:00,44.0,39.0,-100.00,SW,227,3.0,-999.0,81,0.00,,,-99.99,,2013-02-19 14:11:00,
2013-02-19 06:21:00,44.0,39.0,-100.00,SW,227,3.0,-999.0,81,0.00,,,-99.99,,2013-02-19 14:21:00,
2013-02-19 06:32:00,44.0,39.0,-100.00,SW,227,3.0,-999.0,81,0.00,,,-99.99,,2013-02-19 14:32:00,
2013-02-19 06:41:00,44.0,39.0,-100.00,SW,227,3.0,-999.0,81,0.00,,,-99.99,,2013-02-19 14:41:00,
2013-02-19 07:01:00,44.0,41.0,-100.00,WSW,244,3.0,-999.0,92,0.00,,,-99.99,,2013-02-19 15:01:00,
2013-02-19 07:11:00,44.0,41.0,-100.00,WSW,244,3.0,-999.0,92,0.00,,,-99.99,,2013-02-19 15:11:00,
2013-02-19 07:21:00,44.0,41.0,-100.00,WSW,244,3.0,-999.0,92,0.00,,,-99.99,,2013-02-19 15:21:00,
2013-02-19 07:31:00,44.0,41.0,-100.00,WSW,244,3.0,-999.0,92,0.00,,,-99.99,,2013-02-19 15:31:00,
2013-02-19 07:41:00,44.0,41.0,-100.00,WSW,244,3.0,-999.0,92,0.00,,,-99.99,,2013-02-19 15:41:00,
2013-02-19 08:01:00,46.0,43.0,-100.00,SSW,209,6.0,-999.0,89,0.00,,,-99.99,,2013-02-19 16:01:00,
2013-02-19 08:11:00,46.0,43.0,-100.00,SSW,209,6.0,-999.0,89,0.00,,,-99.99,,2013-02-19 16:11:00,
2013-02-19 08:21:00,46.0,43.0,-100.00,SSW,209,6.0,-999.0,89,0.00,,,-99.99,,2013-02-19 16:21:00,
2013-02-19 08:31:00,46.0,43.0,-100.00,SSW,209,6.0,-999.0,89,0.00,,,-99.99,,2013-02-19 16:31:00,
2013-02-19 08:41:00,46.0,43.0,-100.00,SSW,209,6.0,-999.0,89,0.00,,,-99.99,,2013-02-19 16:41:00,
2013-02-19 09:01:00,47.0,43.0,-100.00,SW,214,8.0,-999.0,88,0.00,,,-99.99,,2013-02-19 17:01:00,
2013-02-19 09:11:00,47.0,43.0,-100.00,SW,214,8.0,-999.0,88,0.00,,,-99.99,,2013-02-19 17:11:00,
2013-02-19 09:21:00,47.0,43.0,-100.00,SW,214,8.0,-999.0,88,0.00,,,-99.99,,2013-02-19 17:21:00,
2013-02-19 09:31:00,47.0,43.0,-100.00,SW,214,8.0,-999.0,88,0.00,,,-99.99,,2013-02-19 17:31:00,
2013-02-19 09:41:00,47.0,43.0,-100.00,SW,214,8.0,-999.0,88,0.00,,,-99.99,,2013-02-19 17:41:00,
2013-02-19 10:01:00,45.0,44.0,-100.00,SW,223,11.0,-999.0,93,0.00,,,-99.99,,2013-02-19 18:01:00,
2013-02-19 10:11:00,45.0,44.0,-100.00,SW,223,11.0,-999.0,93,0.00,,,-99.99,,2013-02-19 18:11:00,
2013-02-19 10:21:00,45.0,44.0,-100.00,SW,223,11.0,-999.0,93,0.00,,,-99.99,,2013-02-19 18:21:00,
2013-02-19 10:31:00,45.0,44.0,-100.00,SW,223,11.0,-999.0,93,0.00,,,-99.99,,2013-02-19 18:31:00,
2013-02-19 10:41:00,45.0,44.0,-100.00,SW,223,11.0,-999.0,93,0.00,,,-99.99,,2013-02-19 18:41:00,
2013-02-19 11:01:00,45.0,42.0,-100.00,West,266,10.0,-999.0,90,0.00,,,-99.99,,2013-02-19 19:01:00,
2013-02-19 11:11:00,45.0,42.0,-100.00,West,266,10.0,-999.0,90,0.00,,,-99.99,,2013-02-19 19:11:00,
2013-02-19 11:21:00,45.0,42.0,-100.00,West,266,10.0,-999.0,90,0.00,,,-99.99,,2013-02-19 19:21:00,
2013-02-19 11:31:00,45.0,42.0,-100.00,West,266,10.0,-999.0,90,0.00,,,-99.99,,2013-02-19 19:31:00,
2013-02-19 11:41:00,45.0,42.0,-100.00,West,266,10.0,-999.0,90,0.00,,,-99.99,,2013-02-19 19:41:00,
2013-02-19 12:01:00,46.0,42.0,-100.00,SW,234,11.0,-999.0,85,0.00,,,-99.99,,2013-02-19 20:01:00,
2013-02-19 12:11:00,46.0,42.0,-100.00,SW,234,11.0,-999.0,85,0.00,,,-99.99,,2013-02-19 20:11:00,
2013-02-19 12:21:00,46.0,42.0,-100.00,SW,234,11.0,-999.0,85,0.00,,,-99.99,,2013-02-19 20:21:00,
2013-02-19 12:31:00,46.0,42.0,-100.00,SW,234,11.0,-999.0,85,0.00,,,-99.99,,2013-02-19 20:31:00,
2013-02-19 12:41:00,46.0,42.0,-100.00,SW,234,11.0,-999.0,85,0.00,,,-99.99,,2013-02-19 20:41:00,
2013-02-19 13:01:00,47.0,39.0,-100.00,West,264,14.0,-999.0,72,0.00,,,-99.99,,2013-02-19 21:01:00,
2013-02-19 13:11:00,47.0,39.0,-100.00,West,264,14.0,-999.0,72,0.00,,,-99.99,,2013-02-19 21:11:00,
2013-02-19 13:21:00,47.0,39.0,-100.00,West,264,14.0,-999.0,72,0.00,,,-99.99,,2013-02-19 21:21:00,
2013-02-19 13:31:00,47.0,39.0,-100.00,West,264,14.0,-999.0,72,0.00,,,-99.99,,2013-02-19 21:31:00,
2013-02-19 13:42:00,47.0,39.0,-100.00,West,264,14.0,-999.0,72,0.00,,,-99.99,,2013-02-19 21:42:00,
2013-02-19 14:02:00,47.0,40.0,-100.00,WNW,290,7.0,-999.0,77,0.00,,,-99.99,,2013-02-19 22:02:00,
2013-02-19 14:11:00,47.0,40.0,-100.00,WNW,290,7.0,-999.0,77,0.00,,,-99.99,,2013-02-19 22:11:00,
2013-02-19 14:21:00,47.0,40.0,-100.00,WNW,290,7.0,-999.0,77,0.00,,,-99.99,,2013-02-19 22:21:00,
2013-02-19 14:31:00,47.0,40.0,-100.00,WNW,290,7.0,-999.0,77,0.00,,,-99.99,,2013-02-19 22:31:00,
2013-02-19 14:41:00,47.0,40.0,-100.00,WNW,290,7.0,-999.0,77,0.00,,,-99.99,,2013-02-19 22:41:00,
2013-02-19 15:01:00,48.0,36.0,-100.00,West,280,14.0,-999.0,62,0.00,,,-99.99,,2013-02-19 23:01:00,
2013-02-19 15:11:00,48.0,36.0,-100.00,West,280,14.0,-999.0,62,0.00,,,-99.99,,2013-02-19 23:11:00,
2013-02-19 15:21:00,48.0,36.0,-100.00,West,280,14.0,-999.0,62,0.00,,,-99.99,,2013-02-19 23:21:00,
2013-02-19 15:31:00,48.0,36.0,-100.00,West,280,14.0,-999.0,62,0.00,,,-99.99,,2013-02-19 23:31:00,
2013-02-19 15:41:00,48.0,36.0,-100.00,West,280,14.0,-999.0,62,0.00,,,-99.99,,2013-02-19 23:41:00,
2013-02-19 16:01:00,47.0,36.0,-100.00,West,272,11.0,-999.0,64,0.00,,,-99.99,,2013-02-20 00:01:00,
2013-02-19 16:11:00,47.0,36.0,-100.00,West,272,11.0,-999.0,64,0.00,,,-99.99,,2013-02-20 00:11:00,
2013-02-19 16:21:00,47.0,36.0,-100.00,West,272,11.0,-999.0,64,0.00,,,-99.99,,2013-02-20 00:21:00,
2013-02-19 16:31:00,47.0,36.0,-100.00,West,272,11.0,-999.0,64,0.00,,,-99.99,,2013-02-20 00:31:00,
2013-02-19 16:41:00,47.0,36.0,-100.00,West,272,11.0,-999.0,64,0.00,,,-99.99,,2013-02-20 00:41:00,
2013-02-19 17:02:00,45.0,37.0,-100.00,West,280,7.0,-999.0,73,0.00,,,-99.99,,2013-02-20 01:02:00,
2013-02-19 17:11:00,45.0,37.0,-100.00,West,280,7.0,-999.0,73,0.00,,,-99.99,,2013-02-20 01:11:00,
2013-02-19 17:21:00,45.0,37.0,-100.00,West,280,7.0,-999.0,73,0.00,,,-99.99,,2013-02-20 01:21:00,
2013-02-19 17:31:00,45.0,37.0,-100.00,West,280,7.0,-999.0,73,0.00,,,-99.99,,2013-02-20 01:31:00,
2013-02-19 17:41:00,45.0,37.0,-100.00,West,280,7.0,-999.0,73,0.00,,,-99.99,,2013-02-20 01:41:00,
2013-02-19 18:01:00,44.0,37.0,-100.00,West,275,6.0,-999.0,74,0.00,,,-99.99,,2013-02-20 02:01:00,
2013-02-19 18:11:00,44.0,37.0,-100.00,West,275,6.0,-999.0,74,0.00,,,-99.99,,2013-02-20 02:11:00,
2013-02-19 18:21:00,44.0,37.0,-100.00,West,275,6.0,-999.0,74,0.00,,,-99.99,,2013-02-20 02:21:00,
2013-02-19 18:31:00,44.0,37.0,-100.00,West,275,6.0,-999.0,74,0.00,,,-99.99,,2013-02-20 02:31:00,
2013-02-19 18:41:00,44.0,37.0,-100.00,West,275,6.0,-999.0,74,0.00,,,-99.99,,2013-02-20 02:41:00,
2013-02-19 19:01:00,41.0,34.0,-100.00,WNW,287,7.0,-999.0,76,0.00,,,-99.99,,2013-02-20 03:01:00,
2013-02-19 19:12:00,41.0,34.0,-100.00,WNW,287,7.0,-999.0,76,0.00,,,-99.99,,2013-02-20 03:12:00,
2013-02-19 19:21:00,41.0,34.0,-100.00,WNW,287,7.0,-999.0,76,0.00,,,-99.99,,2013-02-20 03:21:00,
2013-02-19 19:32:00,41.0,34.0,-100.00,WNW,287,7.0,-999.0,76,0.00,,,-99.99,,2013-02-20 03:32:00,
2013-02-19 19:41:00,41.0,34.0,-100.00,WNW,287,7.0,-999.0,76,0.00,,,-99.99,,2013-02-20 03:41:00,
2013-02-19 20:01:00,42.0,34.0,-100.00,NW,308,8.0,-999.0,72,0.00,,,-99.99,,2013-02-20 04:01:00,
2013-02-19 20:11:00,42.0,34.0,-100.00,NW,308,8.0,-999.0,72,0.00,,,-99.99,,2013-02-20 04:11:00,
2013-02-19 20:21:00,42.0,34.0,-100.00,NW,308,8.0,-999.0,72,0.00,,,-99.99,,2013-02-20 04:21:00,
2013-02-19 20:31:00,42.0,34.0,-100.00,NW,308,8.0,-999.0,72,0.00,,,-99.99,,2013-02-20 04:31:00,
2013-02-19 20:41:00,42.0,34.0,-100.00,NW,308,8.0,-999.0,72,0.00,,,-99.99,,2013-02-20 04:41:00,
2013-02-19 21:02:00,42.0,35.0,-100.00,North,2,7.0,-999.0,76,0.00,,,-99.99,,2013-02-20 05:02:00,
2013-02-19 21:12:00,42.0,35.0,-100.00,North,2,7.0,-999.0,76,0.00,,,-99.99,,2013-02-20 05:12:00,
2013-02-19 21:22:00,42.0,35.0,-100.00,North,2,7.0,-999.0,76,0.00,,,-99.99,,2013-02-20 05:22:00,
2013-02-19 21:32:00,42.0,35.0,-100.00,North,2,7.0,-999.0,76,0.00,,,-99.99,,2013-02-20 05:32:00,
2013-02-19 21:42:00,42.0,35.0,-100.00,North,2,7.0,-999.0,76,0.00,,,-99.99,,2013-02-20 05:42:00,
2013-02-19 22:01:00,40.0,35.0,-100.00,North,4,3.0,-999.0,83,0.00,,,-99.99,,2013-02-20 06:01:00,
2013-02-19 22:11:00,40.0,35.0,-100.00,North,4,3.0,-999.0,83,0.00,,,-99.99,,2013-02-20 06:11:00,
2013-02-19 22:21:00,40.0,35.0,-100.00,North,4,3.0,-999.0,83,0.00,,,-99.99,,2013-02-20 06:21:00,
2013-02-19 22:31:00,40.0,35.0,-100.00,North,4,3.0,-999.0,83,0.00,,,-99.99,,2013-02-20 06:31:00,
2013-02-19 22:41:00,40.0,35.0,-100.00,North,4,3.0,-999.0,83,0.00,,,-99.99,,2013-02-20 06:41:00,
2013-02-19 23:01:00,39.0,34.0,-100.00,WNW,287,6.0,-999.0,83,0.00,,,-99.99,,2013-02-20 07:01:00,
2013-02-19 23:11:00,39.0,34.0,-100.00,WNW,287,6.0,-999.0,83,0.00,,,-99.99,,2013-02-20 07:11:00,
2013-02-19 23:21:00,39.0,34.0,-100.00,WNW,287,6.0,-999.0,83,0.00,,,-99.99,,2013-02-20 07:21:00,
2013-02-19 23:31:00,39.0,34.0,-100.00,WNW,287,6.0,-999.0,83,0.00,,,-99.99,,2013-02-20 07:31:00,
2013-02-19 23:41:00,39.0,34.0,-100.00,WNW,287,6.0,-999.0,83,0.00,,,-99.99,,2013-02-20 07:41:00,